Location: Unspecified
(0.0000°N, 0.0000°E)
Time: 21:55:14
(UTC+00:00)

TIGRISAT - Visible Passes

Search period start: 23 July 2024 00:00
Search period end: 02 August 2024 00:00
Orbit: 593 x 670 km, 97.7° (Epoch: 23 July)

Date Brightness Start Highest point End Pass type
(mag) Time Alt. Az. Time Alt. Az. Time Alt. Az.
23 Jul ? 04:44:25 40° W 04:44:25 40° W 04:48:41 10° NNW visible
24 Jul ? 03:28:12 17° E 03:29:09 18° ENE 03:32:16 10° NE visible
24 Jul ? 05:05:37 21° W 05:05:37 21° W 05:08:41 10° NW visible
25 Jul ? 03:49:24 33° E 03:50:00 34° ENE 03:54:08 10° NNE visible
25 Jul ? 05:26:49 10° W 05:26:49 10° W 05:27:13 10° W visible
26 Jul ? 04:10:36 67° E 04:10:50 68° E 04:15:22 10° N visible
27 Jul ? 04:31:47 60° W 04:31:47 60° W 04:36:10 10° NNW visible
28 Jul ? 03:15:34 12° E 03:16:23 12° ENE 03:18:13 10° NE visible
28 Jul ? 04:52:59 30° W 04:52:59 30° W 04:56:28 10° NW visible
29 Jul ? 03:36:44 23° E 03:37:10 24° ENE 03:40:47 10° NNE visible
29 Jul ? 05:14:09 16° W 05:14:09 16° W 05:16:04 10° WNW visible
30 Jul ? 03:57:54 45° E 03:57:57 45° ENE 04:02:17 10° N visible
31 Jul ? 04:19:03 78° N 04:19:03 78° N 04:23:17 10° NNW visible
01 Aug ? 04:40:11 42° WNW 04:40:11 42° WNW 04:43:50 10° NNW visible
